NFC3PC EDDL-EDDS

Flight info

Callsign NFC3PC
Flight time 0h 53m
Altitude 23000
Route KUMIK5Z KUMIK L603 BOMBI N850 KRH T128 BADSO BADSO2A
Aircraft A306/H-SDE3FGHIRWY/LB1

Departure

Time 2026-05-07 19:58
Airport Düsseldorf Airport (EDDL)

Arrival

Time 2026-05-07 20:52
Airport Stuttgart Airport (EDDS)
Time Latitude Longitude Altitude Speed Heading
2026-05-07 19:38 51.28565 6.77222 143 ft 0 kts 323°
2026-05-07 19:49 51.28548 6.77242 142 ft 4 kts 323°
2026-05-07 19:50 51.28529 6.77264 141 ft 4 kts 311°
2026-05-07 19:50 51.28520 6.77291 141 ft 4 kts 249°
2026-05-07 19:50 51.28533 6.77323 141 ft 2 kts 229°
2026-05-07 19:50 51.28535 6.77325 141 ft 2 kts 229°
2026-05-07 19:52 51.28530 6.77316 141 ft 4 kts 229°
2026-05-07 19:53 51.28490 6.77237 140 ft 14 kts 231°
2026-05-07 19:53 51.28416 6.77081 140 ft 19 kts 234°
2026-05-07 19:53 51.28352 6.76913 138 ft 17 kts 255°
2026-05-07 19:53 51.28356 6.76751 139 ft 13 kts 275°
2026-05-07 19:54 51.28338 6.76642 139 ft 7 kts 240°
2026-05-07 19:54 51.28313 6.76582 139 ft 6 kts 232°
2026-05-07 19:54 51.28272 6.76503 138 ft 13 kts 230°
2026-05-07 19:54 51.28214 6.76388 139 ft 12 kts 232°
2026-05-07 19:55 51.28191 6.76273 140 ft 10 kts 281°
2026-05-07 19:55 51.28196 6.76172 140 ft 9 kts 265°
2026-05-07 19:55 51.28201 6.76084 139 ft 7 kts 298°
2026-05-07 19:55 51.28233 6.76054 140 ft 4 kts 343°
2026-05-07 19:56 51.28235 6.76053 140 ft 0 kts 345°
2026-05-07 19:56 51.28246 6.76048 140 ft 5 kts 345°
2026-05-07 19:57 51.28316 6.76039 139 ft 15 kts
2026-05-07 19:57 51.28410 6.76143 136 ft 23 kts 52°
2026-05-07 19:57 51.28570 6.76499 141 ft 61 kts 51°
2026-05-07 19:57 51.28966 6.77309 144 ft 123 kts 52°
2026-05-07 19:58 51.29590 6.78609 262 ft 166 kts 52°
2026-05-07 19:58 51.30309 6.80148 817 ft 185 kts 54°
2026-05-07 19:58 51.31180 6.82022 950 ft 231 kts 54°
2026-05-07 19:58 51.32189 6.84151 1002 ft 246 kts 53°
2026-05-07 19:59 51.33231 6.86378 1438 ft 252 kts 54°
2026-05-07 19:59 51.34258 6.88650 2468 ft 251 kts 55°
2026-05-07 19:59 51.35104 6.91100 3448 ft 255 kts 72°
2026-05-07 19:59 51.35227 6.93939 4296 ft 261 kts 95°
2026-05-07 20:00 51.34960 6.96830 5198 ft 264 kts 98°
2026-05-07 20:00 51.34641 6.99746 6069 ft 268 kts 98°
2026-05-07 20:00 51.34323 7.02699 6884 ft 271 kts 98°
2026-05-07 20:00 51.34008 7.05699 7653 ft 276 kts 98°
2026-05-07 20:01 51.33692 7.08752 8394 ft 281 kts 98°
2026-05-07 20:01 51.33374 7.11856 9135 ft 285 kts 99°
2026-05-07 20:01 51.33052 7.15009 9865 ft 289 kts 99°
2026-05-07 20:01 51.32751 7.18200 10529 ft 292 kts 97°
2026-05-07 20:02 51.32497 7.21446 11174 ft 296 kts 97°
2026-05-07 20:02 51.32256 7.24678 11814 ft 299 kts 97°
2026-05-07 20:02 51.32010 7.27994 12443 ft 302 kts 97°
2026-05-07 20:02 51.31760 7.31351 13049 ft 306 kts 97°
2026-05-07 20:03 51.31499 7.34741 13652 ft 309 kts 99°
2026-05-07 20:03 51.30996 7.38097 14197 ft 312 kts 111°
2026-05-07 20:03 51.29984 7.41159 14721 ft 313 kts 126°
2026-05-07 20:03 51.28647 7.43909 15246 ft 315 kts 131°
2026-05-07 20:04 51.27237 7.46611 15763 ft 318 kts 131°
2026-05-07 20:04 51.25812 7.49331 16261 ft 320 kts 131°
2026-05-07 20:04 51.24381 7.52071 16785 ft 323 kts 131°
2026-05-07 20:04 51.22939 7.54843 17302 ft 325 kts 131°
2026-05-07 20:05 51.21489 7.57632 17809 ft 328 kts 131°
2026-05-07 20:05 51.20029 7.60441 18307 ft 331 kts 131°
2026-05-07 20:05 51.18554 7.63277 18724 ft 333 kts 131°
2026-05-07 20:05 51.17056 7.66106 19171 ft 335 kts 134°
2026-05-07 20:06 51.15363 7.68667 19590 ft 336 kts 142°
2026-05-07 20:06 51.13527 7.70986 20022 ft 338 kts 144°
2026-05-07 20:06 51.11658 7.73269 20450 ft 340 kts 144°
2026-05-07 20:06 51.09773 7.75565 20867 ft 342 kts 144°
2026-05-07 20:07 51.07876 7.77878 21293 ft 344 kts 144°
2026-05-07 20:07 51.05971 7.80204 21704 ft 347 kts 144°
2026-05-07 20:07 51.04052 7.82547 22120 ft 349 kts 144°
2026-05-07 20:07 51.02124 7.84900 22525 ft 351 kts 144°
2026-05-07 20:08 51.00184 7.87267 22908 ft 353 kts 144°
2026-05-07 20:08 50.98230 7.89647 23003 ft 355 kts 144°
2026-05-07 20:08 50.96270 7.92033 23009 ft 355 kts 144°
2026-05-07 20:08 50.94310 7.94417 23003 ft 355 kts 144°
2026-05-07 20:09 50.92348 7.96801 23000 ft 355 kts 144°
2026-05-07 20:09 50.90387 7.99179 22997 ft 355 kts 144°
2026-05-07 20:09 50.88424 8.01559 23058 ft 355 kts 144°
2026-05-07 20:10 50.84537 8.06409 23076 ft 357 kts 139°
2026-05-07 20:10 50.82851 8.09293 23080 ft 358 kts 130°
2026-05-07 20:10 50.81347 8.12441 23078 ft 359 kts 127°
2026-05-07 20:10 50.79942 8.15707 23077 ft 360 kts 125°
2026-05-07 20:11 50.78580 8.19026 23075 ft 360 kts 124°
2026-05-07 20:11 50.77229 8.22354 23076 ft 360 kts 124°
2026-05-07 20:11 50.75872 8.25674 23078 ft 360 kts 124°
2026-05-07 20:11 50.74522 8.28936 23083 ft 360 kts 125°
2026-05-07 20:12 50.73141 8.32234 23080 ft 360 kts 125°
2026-05-07 20:12 50.71753 8.35518 23085 ft 360 kts 126°
2026-05-07 20:12 50.70281 8.38696 23076 ft 358 kts 134°
2026-05-07 20:12 50.68453 8.41333 23084 ft 355 kts 147°
2026-05-07 20:13 50.66398 8.43479 23086 ft 354 kts 150°
2026-05-07 20:13 50.64274 8.45423 23085 ft 354 kts 153°
2026-05-07 20:13 50.62101 8.47266 23091 ft 354 kts 154°
2026-05-07 20:13 50.59917 8.49059 23091 ft 354 kts 154°
2026-05-07 20:14 50.57727 8.50846 23094 ft 355 kts 154°
2026-05-07 20:14 50.55541 8.52639 23092 ft 355 kts 154°
2026-05-07 20:14 50.53358 8.54447 23093 ft 355 kts 154°
2026-05-07 20:14 50.51177 8.56266 23094 ft 355 kts 154°
2026-05-07 20:15 50.48995 8.58094 23091 ft 355 kts 154°
2026-05-07 20:15 50.46821 8.59919 23093 ft 355 kts 154°
2026-05-07 20:15 50.44596 8.61588 23091 ft 354 kts 161°
2026-05-07 20:15 50.42280 8.62892 23085 ft 353 kts 163°
2026-05-07 20:16 50.39944 8.64084 23085 ft 353 kts 165°
2026-05-07 20:16 50.37598 8.65208 23083 ft 353 kts 165°
2026-05-07 20:16 50.35238 8.66302 23079 ft 353 kts 166°
2026-05-07 20:16 50.32880 8.67385 23077 ft 353 kts 166°
2026-05-07 20:17 50.30520 8.68469 23078 ft 354 kts 166°
2026-05-07 20:17 50.28161 8.69559 23077 ft 354 kts 165°
2026-05-07 20:17 50.25804 8.70653 23077 ft 354 kts 165°
2026-05-07 20:17 50.23445 8.71752 23077 ft 353 kts 165°
2026-05-07 20:18 50.21091 8.72850 23076 ft 354 kts 165°
2026-05-07 20:18 50.18738 8.73948 23072 ft 354 kts 165°
2026-05-07 20:18 50.16376 8.75049 23074 ft 354 kts 165°
2026-05-07 20:18 50.14017 8.76147 23075 ft 354 kts 165°
2026-05-07 20:19 50.11658 8.77244 23072 ft 354 kts 165°
2026-05-07 20:19 50.09298 8.78340 23074 ft 354 kts 165°
2026-05-07 20:19 50.06906 8.79182 23070 ft 352 kts 175°
2026-05-07 20:19 50.04472 8.79297 23070 ft 349 kts 187°
2026-05-07 20:20 50.02072 8.78821 23074 ft 348 kts 191°
2026-05-07 20:20 49.99693 8.78127 23072 ft 348 kts 194°
2026-05-07 20:20 49.97332 8.77315 23071 ft 347 kts 195°
2026-05-07 20:20 49.94979 8.76456 23072 ft 347 kts 195°
2026-05-07 20:21 49.92627 8.75591 23070 ft 347 kts 195°
2026-05-07 20:21 49.90271 8.74734 23072 ft 348 kts 195°
2026-05-07 20:21 49.88713 8.74177 23070 ft 348 kts 195°
2026-05-07 20:21 49.86351 8.73344 23070 ft 348 kts 195°
2026-05-07 20:22 49.83990 8.72523 23069 ft 348 kts 195°
2026-05-07 20:22 49.81632 8.71710 23068 ft 348 kts 194°
2026-05-07 20:22 49.79268 8.70899 23067 ft 348 kts 194°
2026-05-07 20:22 49.76904 8.70087 23064 ft 348 kts 194°
2026-05-07 20:23 49.74533 8.69313 23059 ft 348 kts 191°
2026-05-07 20:23 49.72129 8.68830 23066 ft 349 kts 188°
2026-05-07 20:23 49.69715 8.68437 23069 ft 349 kts 188°
2026-05-07 20:23 49.67293 8.68091 23069 ft 350 kts 187°
2026-05-07 20:24 49.64871 8.67769 23070 ft 350 kts 187°
2026-05-07 20:24 49.62448 8.67457 23072 ft 350 kts 187°
2026-05-07 20:24 49.60020 8.67146 23067 ft 350 kts 187°
2026-05-07 20:24 49.57597 8.66836 23074 ft 350 kts 187°
2026-05-07 20:25 49.55171 8.66517 23070 ft 350 kts 187°
2026-05-07 20:25 49.52748 8.66194 23075 ft 350 kts 187°
2026-05-07 20:25 49.50324 8.65870 23074 ft 350 kts 187°
2026-05-07 20:25 49.47897 8.65545 23007 ft 351 kts 187°
2026-05-07 20:26 49.45461 8.65219 22541 ft 352 kts 187°
2026-05-07 20:26 49.43000 8.64889 21864 ft 358 kts 187°
2026-05-07 20:26 49.40498 8.64553 21201 ft 364 kts 187°
2026-05-07 20:26 49.37961 8.64215 20565 ft 368 kts 187°
2026-05-07 20:27 49.35399 8.63875 19951 ft 372 kts 187°
2026-05-07 20:27 49.32818 8.63529 19344 ft 370 kts 187°
2026-05-07 20:27 49.30302 8.63167 18834 ft 356 kts 187°
2026-05-07 20:27 49.27915 8.62806 18359 ft 343 kts 188°
2026-05-07 20:28 49.25577 8.62443 17800 ft 332 kts 188°
2026-05-07 20:28 49.23284 8.62082 17246 ft 323 kts 188°
2026-05-07 20:28 49.21098 8.61737 16720 ft 318 kts 188°
2026-05-07 20:28 49.18901 8.61389 16203 ft 317 kts 187°
2026-05-07 20:29 49.16714 8.61046 15824 ft 316 kts 187°
2026-05-07 20:29 49.14529 8.60707 15822 ft 315 kts 187°
2026-05-07 20:29 49.12352 8.60376 15780 ft 313 kts 187°
2026-05-07 20:29 49.10162 8.60047 15543 ft 312 kts 187°
2026-05-07 20:30 49.08033 8.59728 15294 ft 311 kts 187°
2026-05-07 20:30 49.05881 8.59410 15054 ft 311 kts 187°
2026-05-07 20:30 49.03732 8.59092 14799 ft 310 kts 187°
2026-05-07 20:30 49.01592 8.58771 14560 ft 308 kts 187°
2026-05-07 20:31 48.99457 8.58590 14315 ft 308 kts 180°
2026-05-07 20:31 48.97320 8.58730 14055 ft 306 kts 178°
2026-05-07 20:31 48.95196 8.58942 13763 ft 306 kts 177°
2026-05-07 20:31 48.93074 8.59178 13440 ft 305 kts 176°
2026-05-07 20:32 48.90966 8.59420 13122 ft 303 kts 176°
2026-05-07 20:32 48.88875 8.59770 12798 ft 303 kts 169°
2026-05-07 20:32 48.86890 8.60802 12485 ft 302 kts 153°
2026-05-07 20:32 48.85209 8.62708 12172 ft 303 kts 134°
2026-05-07 20:33 48.84008 8.65323 11861 ft 304 kts 116°
2026-05-07 20:33 48.83405 8.68382 11556 ft 304 kts 97°
2026-05-07 20:33 48.83446 8.71581 11276 ft 304 kts 82°
2026-05-07 20:33 48.83821 8.74726 10974 ft 303 kts 79°
2026-05-07 20:34 48.84247 8.77876 10698 ft 306 kts 78°
2026-05-07 20:34 48.84669 8.81027 10402 ft 304 kts 79°
2026-05-07 20:34 48.85079 8.84163 10138 ft 301 kts 79°
2026-05-07 20:34 48.85479 8.87268 10078 ft 300 kts 79°
2026-05-07 20:35 48.85876 8.90373 10070 ft 300 kts 79°
2026-05-07 20:35 48.86270 8.93488 10070 ft 300 kts 79°
2026-05-07 20:35 48.86662 8.96597 10072 ft 300 kts 79°
2026-05-07 20:35 48.87053 8.99710 10072 ft 300 kts 79°
2026-05-07 20:36 48.87444 9.02825 10074 ft 300 kts 79°
2026-05-07 20:36 48.87832 9.05933 10072 ft 300 kts 79°
2026-05-07 20:36 48.88220 9.09047 10073 ft 300 kts 79°
2026-05-07 20:36 48.88607 9.12157 10073 ft 300 kts 79°
2026-05-07 20:37 48.88992 9.15262 10073 ft 299 kts 79°
2026-05-07 20:37 48.89377 9.18374 10074 ft 299 kts 79°
2026-05-07 20:37 48.89761 9.21480 10073 ft 299 kts 79°
2026-05-07 20:37 48.90144 9.24592 10042 ft 299 kts 79°
2026-05-07 20:38 48.90526 9.27699 9958 ft 299 kts 79°
2026-05-07 20:38 48.90907 9.30806 9880 ft 299 kts 79°
2026-05-07 20:38 48.91207 9.33932 9794 ft 298 kts 86°
2026-05-07 20:38 48.91208 9.37079 9673 ft 298 kts 92°
2026-05-07 20:39 48.91103 9.40222 9542 ft 297 kts 94°
2026-05-07 20:39 48.90984 9.43353 9411 ft 297 kts 94°
2026-05-07 20:39 48.90865 9.46477 9275 ft 296 kts 94°
2026-05-07 20:39 48.90749 9.49601 9146 ft 296 kts 94°
2026-05-07 20:40 48.90635 9.52676 9006 ft 295 kts 94°
2026-05-07 20:40 48.90521 9.55782 8886 ft 294 kts 94°
2026-05-07 20:40 48.90406 9.58887 8757 ft 294 kts 94°
2026-05-07 20:40 48.90290 9.61980 8621 ft 293 kts 94°
2026-05-07 20:41 48.90175 9.65065 8497 ft 292 kts 94°
2026-05-07 20:41 48.90058 9.68149 8342 ft 292 kts 94°
2026-05-07 20:41 48.89942 9.71227 8095 ft 291 kts 94°
2026-05-07 20:41 48.89826 9.74263 7833 ft 285 kts 94°
2026-05-07 20:42 48.89711 9.77245 7576 ft 280 kts 94°
2026-05-07 20:42 48.89560 9.80174 7319 ft 276 kts 99°
2026-05-07 20:42 48.89030 9.82953 7072 ft 274 kts 117°
2026-05-07 20:42 48.87950 9.85293 6816 ft 270 kts 137°
2026-05-07 20:43 48.86432 9.86927 6570 ft 267 kts 157°
2026-05-07 20:43 48.84670 9.87682 6317 ft 262 kts 178°
2026-05-07 20:43 48.82887 9.87348 6049 ft 258 kts 201°
2026-05-07 20:43 48.81371 9.85963 5790 ft 255 kts 225°
2026-05-07 20:44 48.80405 9.83760 5514 ft 252 kts 253°
2026-05-07 20:44 48.80019 9.81166 5293 ft 253 kts 259°
2026-05-07 20:44 48.79635 9.78563 5041 ft 254 kts 256°
2026-05-07 20:44 48.79169 9.75982 4953 ft 254 kts 254°
2026-05-07 20:45 48.78673 9.73412 4954 ft 254 kts 254°
2026-05-07 20:45 48.78175 9.70845 4957 ft 254 kts 254°
2026-05-07 20:45 48.77685 9.68271 4952 ft 254 kts 254°
2026-05-07 20:45 48.77199 9.65696 4758 ft 253 kts 254°
2026-05-07 20:46 48.76717 9.63145 4542 ft 251 kts 254°
2026-05-07 20:46 48.76237 9.60595 4288 ft 252 kts 254°
2026-05-07 20:46 48.75761 9.58066 4043 ft 245 kts 254°
2026-05-07 20:46 48.75308 9.55666 3978 ft 228 kts 254°
2026-05-07 20:47 48.74879 9.53402 3988 ft 221 kts 254°
2026-05-07 20:47 48.74462 9.51192 3996 ft 221 kts 254°
2026-05-07 20:47 48.74041 9.48953 3994 ft 221 kts 254°
2026-05-07 20:47 48.73622 9.46723 3994 ft 220 kts 254°
2026-05-07 20:48 48.73209 9.44528 3971 ft 207 kts 254°
2026-05-07 20:48 48.72837 9.42569 3955 ft 181 kts 254°
2026-05-07 20:48 48.72506 9.40832 3938 ft 166 kts 254°
2026-05-07 20:48 48.72204 9.39151 3760 ft 169 kts 256°
2026-05-07 20:49 48.71874 9.37316 2965 ft 191 kts 255°
2026-05-07 20:49 48.71495 9.35342 2468 ft 193 kts 252°
2026-05-07 20:49 48.71124 9.33496 2387 ft 171 kts 253°
2026-05-07 20:49 48.70815 9.31865 2230 ft 151 kts 254°
2026-05-07 20:50 48.70535 9.30381 2032 ft 144 kts 254°
2026-05-07 20:50 48.70260 9.28922 1834 ft 144 kts 254°
2026-05-07 20:50 48.69985 9.27464 1635 ft 144 kts 254°
2026-05-07 20:50 48.69710 9.26013 1442 ft 143 kts 254°
2026-05-07 20:51 48.69437 9.24564 1267 ft 143 kts 254°
2026-05-07 20:51 48.69168 9.23148 1228 ft 129 kts 254°
2026-05-07 20:51 48.68966 9.22085 1251 ft 82 kts 254°
2026-05-07 20:51 48.68834 9.21356 1262 ft 56 kts 259°
2026-05-07 20:52 48.68845 9.20920 1268 ft 32 kts 284°
2026-05-07 20:52 48.68875 9.20743 1279 ft 13 kts 284°
2026-05-07 20:52 48.68879 9.20720 1278 ft 0 kts 284°
2026-05-07 20:53 48.68876 9.20696 1276 ft 5 kts 259°
2026-05-07 20:54 48.68862 9.20613 1279 ft 11 kts 254°
2026-05-07 20:54 48.68835 9.20471 1284 ft 17 kts 253°
2026-05-07 20:54 48.68796 9.20266 1288 ft 23 kts 254°
2026-05-07 20:54 48.68750 9.20046 1291 ft 21 kts 239°
2026-05-07 20:55 48.68636 9.20008 1292 ft 16 kts 167°
2026-05-07 20:55 48.68527 9.20051 1292 ft 18 kts 164°
2026-05-07 20:55 48.68400 9.20107 1291 ft 18 kts 162°
2026-05-07 20:55 48.68368 9.20246 1288 ft 15 kts 74°
2026-05-07 20:56 48.68399 9.20397 1289 ft 15 kts 74°
2026-05-07 20:56 48.68386 9.20472 1286 ft 4 kts 162°
2026-05-07 20:56 48.68374 9.20477 1288 ft 1 kts 166°
2026-05-07 20:56 48.68369 9.20478 1286 ft 1 kts 166°
2026-05-07 20:57 48.68367 9.20479 1286 ft 0 kts 166°
2026-05-07 20:57 48.68366 9.20480 1286 ft 0 kts 166°